GW5574 Weather Reports


time (UTC)temp
F
wind
direction
speed
knots
gust
knots
rain 1hr
in
rain 24hr
in
rain mn
in
humidity
%
barometer
mb
20260504081512 54 235 0.0 0.9 0.01 0.04 0.04 93 1007.0
20260504050024 55 231 0.0 1.7 0.00 0.00 0.00 83 1008.6
20260504044527 56 8 0.0 0.9 0.00 0.00 0.00 80 1008.2
20260504043015 56 8 0.0 0.9 0.00 0.00 0.00 82 1008.5
20260504041520 56 325 0.0 0.0 0.00 0.00 0.00 81 1008.6
20260504040024 56 325 0.0 0.0 0.00 0.00 0.00 80 1008.7
20260504034539 57 325 0.0 0.0 0.00 0.00 0.00 78 1008.8
20260504033029 57 325 0.0 0.0 0.00 0.00 0.00 77 1009.0
20260504031518 58 325 0.0 0.0 0.00 0.00 0.00 76 1009.1
20260504030029 59 325 0.0 0.0 0.00 0.00 0.00 71 1009.0
20260504024522 59 325 0.0 0.0 0.00 0.00 0.00 70 1008.9
20260504023028 61 324 0.0 0.0 0.00 0.00 0.00 66 1008.8
20260504021527 62 325 0.0 0.0 0.00 0.00 0.00 65 1008.8
20260504020020 62 325 0.0 0.0 0.00 0.00 0.00 61 1008.7
20260504014505 64 325 0.0 0.0 0.00 0.00 0.00 60 1008.9
20260504013006 64 325 0.0 0.0 0.00 0.00 0.00 58 1008.5
20260504011510 66 325 0.0 1.7 0.00 0.00 0.00 56 1008.8
20260504010016 65 340 0.0 1.7 0.00 0.00 0.00 58 1008.6
20260504004522 65 351 0.0 0.0 0.00 0.00 0.00 58 1008.7
20260504003023 66 351 0.0 0.9 0.00 0.00 0.00 57 1008.7
20260504001504 67 348 0.0 0.9 0.00 0.00 0.00 56 1008.9
20260504000010 68 348 0.0 0.9 0.00 0.00 0.00 53 1008.9
20260503234518 69 89 0.0 1.7 0.00 0.00 0.00 51 1008.5
20260503233022 70 34 0.0 1.7 0.00 0.00 0.00 53 1008.8
20260503231536 71 356 0.0 2.6 0.00 0.00 0.00 53 1008.8
20260503230010 71 353 0.0 1.7 0.00 0.00 0.00 51 1008.9
20260503224513 72 127 0.0 2.6 0.00 0.00 0.00 53 1009.0
20260503223023 72 37 0.0 2.6 0.00 0.00 0.00 50 1008.9
20260503221519 72 245 0.9 3.5 0.00 0.00 0.00 49 1009.2
20260503220034 72 103 0.9 1.7 0.00 0.00 0.00 51 1008.1
20260503214509 72 212 0.9 3.5 0.00 0.00 0.00 50 1009.1
20260503213016 72 139 0.9 4.3 0.00 0.00 0.00 49 1009.1
20260503211523 72 231 1.7 6.1 0.00 0.00 0.00 47 1009.5
20260503210024 73 207 1.7 7.0 0.00 0.00 0.00 47 1009.4
20260503204539 74 262 1.7 7.0 0.00 0.00 0.00 47 1009.8
20260503203021 73 197 2.6 6.1 0.00 0.00 0.00 45 1009.8
20260503201513 73 219 3.5 6.1 0.00 0.00 0.00 45 1009.8
20260503200004 73 251 1.7 6.1 0.00 0.00 0.00 47 1009.7
20260503194506 75 219 1.7 9.6 0.00 0.00 0.00 45 1010.0
20260503193007 74 229 3.5 8.7 0.00 0.00 0.00 45 1010.2
20260503191504 72 217 2.6 9.6 0.00 0.00 0.00 47 1010.3
20260503190004 70 217 2.6 9.6 0.00 0.00 0.00 50 1010.7
20260503184505 69 195 2.6 11.3 0.00 0.00 0.00 49 1010.6
20260503183006 68 194 4.3 8.7 0.00 0.00 0.00 49 1011.2
20260503181507 67 229 4.3 11.3 0.00 0.00 0.00 49 1010.9
20260503180019 66 233 2.6 7.8 0.00 0.00 0.00 53 1011.6
20260503174517 65 186 1.7 7.8 0.00 0.00 0.00 57 1011.6
20260503173005 63 158 2.6 6.1 0.00 0.00 0.00 55 1011.9
20260503171515 63 219 1.7 7.0 0.00 0.00 0.00 54 1012.0